Temperature
16 16 16 16 16 16 15 15 14 13 12 12 11 11 10 10 10 10 9 9 9 9 9 8 8 8 8 7 7 7 7 7 6 6 6 7 7 7 7 7 7 7 6
16 16 16 16 15 15 15 14 14 13 12 12 11 11 10 10 10 10 9 9 9 9 9 8 8 8 7 7 7 7 6 6 6 5 5 5 6 5 6 6 6 6 6
16 16 15 15 15 15 14 14 13 13 12 11 11 11 10 10 10 9 9 9 9 9 8 8 8 8 7 7 7 6 6 6 5 5 4 4 3 3 4 5 5 5 5
16 15 15 15 15 14 14 13 13 12 12 11 11 11 10 10 10 9 9 9 9 8 8 8 8 7 7 7 6 6 6 5 5 5 4 4 3 2 2 3 4 4 4
15 15 15 15 14 14 13 13 13 12 12 11 11 11 10 10 10 10 9 9 9 8 8 8 8 7 7 7 6 6 6 5 5 5 4 4 3 3 2 2 3 4 4
14 14 14 14 14 13 13 13 13 12 12 11 11 11 10 10 10 10 9 9 9 8 8 8 7 7 7 6 6 6 5 5 5 4 4 3 3 3 1 1 1 2 3
14 14 14 14 13 13 13 13 13 12 12 11 11 11 10 10 10 10 9 9 9 8 8 7 7 7 6 6 6 5 5 5 4 4 4 3 3 2 1 1 0 0 1
14 14 14 14 13 13 13 13 12 12 12 11 11 11 10 10 10 9 9 9 8 8 7 7 7 6 6 6 5 5 5 4 4 4 3 3 3 2 1 1 -0 -1 -1
14 14 14 14 13 13 13 13 12 12 12 11 11 10 10 10 10 9 9 8 8 7 7 7 6 6 5 5 5 5 4 4 4 3 3 3 2 2 1 0 -1 -2 -3
13 14 14 14 13 13 13 12 12 12 11 11 11 10 10 9 9 9 8 8 7 7 7 6 6 5 5 5 4 4 4 3 3 3 2 2 2 1 1 0 -0 -2 -3
14 14 14 14 13 13 12 12 12 11 11 11 10 10 9 9 9 8 8 7 7 7 6 6 5 5 5 4 4 4 3 3 3 2 2 2 1 1 1 -0 -1 -1 -2
14 14 14 13 13 13 12 12 12 11 11 10 10 9 9 9 8 8 7 7 7 6 6 5 5 4 4 4 3 3 3 2 2 2 1 1 1 0 -0 -1 -1 -2 -2
14 14 13 13 13 13 12 12 11 11 10 10 9 9 9 8 8 7 7 6 6 6 5 5 4 4 4 3 3 2 2 2 2 1 1 1 0 -0 -1 -1 -2 -2 -3
15 14 14 14 13 13 12 12 11 11 10 9 9 9 8 8 7 7 6 6 6 5 5 4 4 3 3 3 2 2 2 1 1 1 0 -0 -1 -1 -2 -2 -2 -3 -4
14 14 14 14 13 13 12 11 11 10 10 9 9 8 8 7 7 6 6 6 5 5 4 4 3 3 2 2 2 1 1 1 0 0 -0 -1 -1 -2 -2 -3 -4 -4 -4
15 15 14 14 13 13 12 11 11 10 9 9 8 8 7 7 6 6 6 5 5 4 4 3 3 2 2 2 1 1 0 -0 -0 -1 -1 -1 -2 -2 -2 -3 -4 -4 -5
15 15 14 14 13 13 12 11 11 10 9 8 8 7 7 6 6 5 5 5 4 4 3 3 2 2 2 1 1 0 -0 -1 -1 -1 -1 -2 -2 -3 -3 -3 -4 -4 -5
15 14 14 13 13 12 11 11 10 9 8 8 7 7 6 6 5 5 5 4 3 3 3 2 2 2 1 1 0 -0 -1 -1 -1 -1 -2 -2 -3 -3 -4 -4 -4 -5 -5
14 14 13 13 12 12 11 10 9 8 8 7 7 6 6 5 5 5 4 3 3 3 2 2 2 1 1 1 -0 -1 -1 -1 -1 -2 -2 -3 -3 -4 -5 -5 -5 -5 -5
13 13 13 12 12 11 10 9 8 8 7 7 6 6 5 5 4 4 3 3 2 2 2 1 1 1 0 0 -0 -1 -2 -2 -2 -2 -3 -3 -4 -5 -5 -5 -6 -6 -6
12 12 12 11 11 10 9 8 8 7 7 6 6 5 5 4 4 3 3 2 2 1 1 1 1 0 0 -0 -1 -1 -2 -3 -3 -3 -4 -4 -5 -5 -5 -6 -6 -6 -6
11 11 11 10 9 9 8 8 7 7 6 5 5 5 4 4 3 2 2 2 1 1 1 0 0 0 -0 -1 -1 -2 -3 -4 -4 -4 -4 -5 -5 -6 -6 -6 -6 -6 -6
10 10 10 9 8 8 7 7 6 6 5 5 4 4 3 3 2 2 2 1 1 0 -0 -1 -1 -1 -1 -2 -2 -3 -3 -4 -5 -5 -5 -5 -6 -6 -6 -6 -6 -7 -7
9 9 8 8 8 7 6 6 5 5 4 4 4 3 3 2 2 1 1 0 0 -0 -1 -1 -2 -2 -2 -2 -3 -4 -4 -5 -5 -5 -5 -6 -6 -6 -6 -6 -6 -7 -7
8 8 7 7 7 6 5 5 4 4 4 3 3 2 2 2 1 1 0 -0 -1 -1 -2 -2 -3 -3 -3 -3 -4 -5 -5 -6 -6 -6 -6 -6 -6 -7 -7 -7 -7 -7 -7
8 7 6 6 5 5 5 4 4 3 3 2 2 2 1 1 0 -0 -0 -1 -1 -2 -2 -3 -4 -4 -4 -5 -5 -6 -6 -6 -6 -6 -7 -7 -7 -7 -7 -8 -8 -8 -8
Wind_Speed
5 2 2 3 5 6 8 10 11 10 10 7 6 5 4 3 3 3 4 5 5 5 5 3 2 2 2 2 1 1 2 2 1 2 4 5 4 4 4 4 5 6 8
5 4 3 3 5 6 8 9 10 11 10 7 5 4 4 3 3 4 5 4 4 4 4 3 2 2 1 1 1 1 0 1 0 0 2 5 5 4 3 3 4 4 6
10 7 6 5 5 6 8 9 9 10 9 9 6 5 5 4 3 3 2 3 4 5 4 4 3 2 2 1 1 2 2 1 1 1 2 2 4 4 4 4 4 4 4
9 8 8 7 6 6 6 8 8 9 9 9 9 8 5 4 4 3 3 3 5 5 5 5 4 3 2 1 1 1 2 2 2 2 2 4 3 3 5 4 4 5 6
10 10 9 8 6 6 7 7 9 8 8 8 9 9 6 4 4 3 4 3 3 4 4 4 4 3 2 1 1 1 1 2 3 3 2 3 3 5 6 7 5 4 5
9 8 7 7 6 6 7 8 9 7 7 8 8 9 9 8 7 5 4 3 2 2 3 3 3 2 1 1 1 1 2 3 3 3 3 4 4 4 5 7 6 7 5
10 10 10 9 8 8 8 8 9 8 7 8 8 8 9 9 8 6 5 4 2 1 1 1 1 1 1 1 1 1 2 3 4 4 4 4 5 4 5 6 7 7 5
11 11 11 10 10 10 9 9 9 8 8 8 7 7 8 6 5 5 5 4 3 2 2 1 1 1 1 1 1 1 3 3 4 5 5 4 5 5 5 5 6 8 5
12 11 10 10 10 11 10 10 10 9 8 8 8 7 7 6 6 5 4 3 3 2 2 2 1 1 2 2 2 2 4 4 4 5 6 5 5 5 6 6 5 5 7
9 10 10 10 10 9 8 9 9 9 8 8 8 7 7 6 6 6 5 4 3 2 2 2 2 2 2 3 2 3 4 5 5 5 6 6 5 6 6 6 6 7 8
11 11 10 9 9 8 9 9 9 8 8 8 8 8 7 6 6 5 5 4 3 3 3 2 2 3 3 3 4 5 6 6 7 6 7 8 7 6 6 6 6 7 7
9 9 9 9 9 10 10 10 10 9 9 8 8 8 7 6 6 5 5 4 4 3 3 3 3 4 4 5 5 6 6 7 8 8 7 8 7 8 7 6 8 8 8
8 8 9 11 12 11 11 11 10 10 9 9 9 8 7 7 6 6 5 4 4 3 3 3 4 5 6 6 6 7 7 8 8 8 9 9 8 9 8 8 8 8 9
8 9 11 11 12 11 11 11 10 10 10 9 9 9 8 8 7 6 5 4 4 4 4 5 5 6 6 7 7 7 8 8 9 9 9 10 9 10 10 9 10 9 10
9 11 12 11 11 11 11 11 11 10 10 10 9 9 7 6 6 5 5 4 4 5 5 5 6 6 6 7 8 8 9 9 10 9 10 10 12 15 13 11 9 9 9
10 10 10 11 12 13 13 12 11 11 10 11 10 8 7 6 6 5 5 4 5 5 5 6 7 7 7 12 15 13 8 8 9 10 10 10 12 16 20 22 21 17 13
10 10 11 12 12 12 13 13 12 10 10 9 8 7 7 6 6 5 4 5 5 5 6 7 7 8 11 16 17 18 11 9 9 9 9 10 10 16 10 16 21 20 23
8 8 8 8 8 8 9 9 10 10 10 8 8 7 7 6 5 5 5 6 5 5 6 8 8 9 11 17 18 19 12 9 9 10 10 11 11 11 13 11 12 13 14
6 6 6 6 7 8 9 10 9 9 8 8 8 7 7 6 5 6 6 5 5 6 7 7 8 9 12 17 19 19 8 8 10 10 10 11 11 19 22 15 13 13 12
3 4 5 5 7 8 10 10 9 9 9 8 7 6 6 6 6 7 6 5 5 7 7 8 8 9 11 17 19 20 8 9 9 9 10 17 18 21 23 14 12 15 13
3 5 6 6 6 8 9 9 8 8 7 6 5 5 5 6 6 5 5 5 6 7 8 9 9 9 12 16 19 20 9 8 9 9 8 9 20 23 24 21 14 17 17
4 5 6 5 5 7 9 8 7 5 5 5 4 4 4 4 4 5 6 6 6 7 8 9 10 8 10 14 16 20 19 18 12 10 8 10 22 24 25 20 19 24 21
4 4 6 6 4 5 6 7 5 5 5 4 4 4 4 4 5 5 6 6 6 6 8 8 10 10 7 10 19 21 22 22 15 11 19 22 25 24 17 19 23 20 9
4 5 6 6 4 4 4 4 4 4 4 4 4 4 4 5 5 5 5 6 6 7 8 9 10 10 8 8 8 9 12 16 15 13 17 23 24 18 17 16 13 8 7
4 5 6 5 5 4 4 3 4 4 4 4 4 4 5 5 6 6 6 7 8 9 10 9 9 11 12 13 18 15 10 9 11 13 10 9 7 7 7 7 8 7 7
5 5 5 4 4 4 3 3 3 4 4 4 4 4 4 5 5 6 8 12 14 18 20 20 19 15 20 25 26 26 26 26 25 18 10 9 8 8 8 8 8 7 7
Wind_Direction
238 219 170 139 135 143 154 162 162 162 160 159 156 151 152 145 138 145 151 157 161 167 172 174 169 163 179 210 209 218 257 272 300 319 311 301 298 305 286 285 294 306 316
209 196 169 147 144 148 152 155 160 161 163 162 153 141 134 128 123 115 109 115 130 141 149 148 142 145 152 147 159 164 201 282 23 348 331 328 332 334 312 308 299 303 317
198 190 176 163 147 149 156 157 156 157 153 144 129 111 96 89 97 102 97 85 111 119 123 128 127 123 140 162 179 171 179 235 278 204 208 281 290 304 302 300 295 298 299
188 183 177 168 163 158 148 143 144 147 147 147 150 149 148 150 158 144 125 92 88 98 106 112 115 117 125 142 171 160 174 179 242 270 238 230 231 275 302 300 292 291 288
187 183 179 170 158 149 143 138 135 137 143 147 151 145 136 132 125 118 115 98 74 84 98 108 111 112 119 137 157 174 193 192 208 220 233 248 247 234 253 283 292 294 268
184 175 161 148 145 142 139 140 137 136 141 143 145 146 143 141 138 136 135 121 96 75 81 101 107 115 128 165 201 209 218 218 224 226 217 217 230 232 237 265 283 286 275
178 172 169 168 164 160 156 151 145 142 145 142 145 148 149 150 153 154 154 147 138 136 136 104 114 127 178 221 218 217 239 231 231 236 235 231 234 234 240 264 281 283 283
184 183 181 177 173 170 165 159 155 149 150 148 147 144 144 144 146 151 153 159 166 174 174 156 157 191 235 250 234 229 249 238 241 248 246 245 246 238 235 244 274 294 285
188 187 182 180 178 176 175 169 162 156 157 153 145 144 146 146 149 148 147 153 163 171 171 176 195 241 257 259 247 247 260 257 251 252 253 250 251 246 243 241 238 256 286
190 188 186 185 183 179 172 167 165 162 160 156 154 153 153 153 150 148 156 163 170 171 177 194 215 243 260 262 254 260 261 261 261 253 254 255 253 252 247 244 243 238 257
197 194 190 184 176 170 169 171 169 161 161 162 157 151 155 153 151 158 168 172 177 183 197 215 234 250 259 257 255 258 263 261 266 263 257 258 257 256 254 248 246 247 249
201 192 183 175 176 179 179 179 176 172 170 164 158 159 157 155 160 171 179 179 188 199 210 224 243 254 257 256 254 262 262 259 263 265 261 262 264 256 254 250 251 253 248
196 186 182 186 189 188 185 184 181 177 168 162 160 161 165 169 177 184 187 190 197 213 225 232 245 254 258 259 256 254 258 257 257 258 258 262 261 263 259 253 256 258 261
203 195 196 197 194 190 187 184 183 175 168 165 167 173 180 182 185 188 193 202 207 221 235 242 248 254 259 260 261 258 258 258 257 255 254 256 254 258 261 263 258 257 260
215 207 205 200 193 189 186 184 181 175 170 170 176 185 182 180 182 192 204 212 221 231 239 250 259 261 261 259 257 254 254 254 258 258 254 253 261 267 271 271 261 255 260
227 216 207 199 195 192 188 183 181 177 171 176 183 178 176 182 192 203 210 221 236 244 247 253 259 265 267 277 283 281 260 253 255 260 259 259 270 278 283 284 284 281 276
231 218 209 203 199 193 185 184 180 169 171 177 178 178 181 191 203 208 215 230 240 245 255 258 258 262 270 282 287 288 284 263 257 257 261 270 271 284 273 279 283 282 280
227 216 203 198 190 179 172 164 158 165 172 176 180 183 186 198 205 212 228 238 241 246 254 259 259 264 273 285 290 292 287 269 261 257 257 262 266 267 274 265 264 261 264
213 204 192 180 166 163 158 151 156 162 170 181 188 191 190 198 208 224 237 242 245 253 254 257 261 265 275 286 292 293 278 269 265 261 260 264 262 273 282 281 275 273 267
165 156 144 140 150 154 148 150 160 168 185 192 193 191 191 199 215 230 241 244 245 255 261 265 261 261 269 282 290 291 277 272 273 267 261 272 277 281 285 280 275 278 277
121 127 131 139 150 146 145 154 165 187 192 180 179 189 199 209 223 235 243 250 256 263 266 270 271 266 269 281 286 288 283 271 275 275 268 262 281 286 287 286 280 280 286
122 129 132 132 137 146 150 161 182 184 164 167 183 202 213 222 228 237 253 255 256 267 273 276 280 271 269 277 282 285 285 285 282 279 273 272 284 286 287 289 286 289 294
140 136 138 135 139 153 158 170 180 162 162 174 201 218 228 234 233 237 252 261 256 262 273 275 280 282 270 271 282 287 289 289 286 278 282 286 290 292 291 288 290 292 289
152 143 142 148 161 165 163 169 166 164 168 197 221 231 239 251 248 243 246 252 258 262 269 273 278 281 278 268 267 269 278 282 282 281 281 286 289 288 286 288 289 279 269
154 153 160 166 173 166 170 172 172 167 188 217 235 245 245 251 259 255 247 252 246 250 263 267 268 279 284 279 284 286 280 273 271 280 276 273 274 271 270 271 271 265 265
153 154 162 166 171 171 185 193 188 184 197 234 248 251 254 257 259 269 279 267 264 273 274 275 276 277 279 288 292 292 292 293 292 292 283 280 277 278 279 280 278 269 263
Height
1497 1498 1500 1501 1503 1505 1508 1511 1514 1518 1522 1526 1530 1534 1537 1540 1542 1543 1545 1545 1546 1546 1546 1546 1546 1545 1545 1544 1543 1542 1541 1539 1538 1535 1532 1530 1529 1527 1526 1526 1526 1526 1525
1492 1494 1496 1498 1500 1503 1505 1508 1512 1515 1520 1524 1528 1531 1534 1537 1539 1541 1542 1543 1543 1543 1543 1543 1542 1542 1541 1541 1540 1538 1537 1536 1534 1532 1529 1525 1524 1522 1522 1522 1521 1521 1520
1487 1490 1493 1495 1498 1501 1503 1506 1510 1513 1517 1521 1525 1529 1532 1534 1536 1538 1539 1540 1540 1540 1540 1539 1539 1538 1538 1537 1536 1535 1534 1532 1531 1530 1529 1526 1521 1518 1515 1515 1515 1515 1514
1483 1487 1490 1493 1496 1499 1502 1505 1508 1511 1515 1519 1522 1525 1528 1531 1533 1535 1536 1537 1537 1537 1536 1536 1536 1535 1534 1534 1533 1531 1530 1529 1527 1526 1525 1524 1521 1518 1511 1509 1510 1509 1508
1479 1483 1487 1491 1494 1497 1500 1503 1506 1510 1513 1517 1520 1523 1526 1528 1530 1532 1533 1533 1534 1533 1533 1533 1532 1532 1531 1530 1529 1528 1527 1525 1524 1523 1521 1519 1517 1515 1511 1504 1501 1501 1500
1476 1481 1485 1489 1492 1495 1498 1501 1504 1508 1511 1514 1517 1520 1523 1525 1527 1529 1530 1530 1530 1530 1530 1530 1529 1528 1527 1526 1525 1524 1523 1521 1520 1518 1516 1515 1513 1510 1507 1501 1495 1492 1491
1473 1477 1481 1485 1489 1493 1496 1499 1502 1506 1509 1512 1515 1518 1520 1523 1524 1526 1526 1527 1527 1527 1527 1526 1526 1525 1524 1523 1521 1520 1519 1517 1515 1514 1512 1510 1508 1505 1502 1498 1491 1486 1482
1470 1474 1478 1483 1487 1491 1494 1497 1500 1504 1507 1510 1513 1515 1518 1520 1521 1522 1523 1524 1524 1524 1523 1523 1522 1521 1520 1518 1517 1515 1514 1512 1510 1508 1506 1504 1502 1500 1497 1493 1489 1481 1475
1466 1471 1476 1481 1485 1488 1492 1495 1498 1501 1505 1508 1510 1513 1515 1517 1518 1519 1520 1520 1520 1520 1519 1519 1518 1517 1515 1514 1512 1510 1509 1507 1505 1503 1500 1498 1496 1494 1491 1488 1485 1481 1471
1465 1469 1474 1478 1482 1486 1490 1493 1496 1499 1502 1505 1507 1510 1512 1513 1515 1516 1516 1517 1516 1516 1515 1514 1513 1512 1510 1509 1507 1505 1503 1501 1499 1496 1494 1492 1489 1487 1484 1482 1479 1475 1469
1463 1467 1471 1475 1480 1483 1487 1490 1493 1496 1499 1502 1504 1506 1508 1510 1511 1512 1512 1513 1512 1512 1511 1510 1509 1507 1505 1503 1501 1499 1497 1495 1492 1490 1487 1485 1482 1480 1477 1474 1471 1468 1464
1461 1465 1468 1472 1476 1479 1483 1486 1489 1492 1495 1498 1501 1503 1505 1506 1507 1508 1508 1508 1508 1507 1506 1505 1504 1502 1500 1498 1495 1493 1491 1488 1486 1483 1480 1478 1475 1472 1470 1466 1463 1460 1457
1459 1462 1465 1468 1471 1475 1478 1482 1485 1488 1492 1494 1497 1499 1500 1502 1503 1504 1504 1504 1503 1502 1501 1500 1498 1497 1494 1492 1490 1487 1484 1482 1479 1476 1473 1471 1468 1464 1462 1458 1455 1452 1448
1456 1458 1460 1463 1466 1470 1473 1477 1481 1484 1487 1490 1492 1494 1496 1497 1499 1499 1499 1499 1498 1497 1496 1494 1493 1491 1488 1486 1483 1480 1477 1474 1472 1469 1466 1463 1460 1457 1453 1450 1447 1444 1440
1452 1453 1455 1457 1461 1464 1468 1472 1476 1479 1482 1485 1487 1490 1492 1493 1494 1494 1494 1494 1493 1492 1490 1489 1487 1485 1482 1479 1476 1473 1470 1467 1464 1461 1459 1456 1452 1449 1445 1442 1439 1436 1432
1447 1449 1450 1453 1455 1458 1462 1466 1470 1473 1477 1480 1482 1485 1487 1488 1489 1489 1489 1488 1487 1486 1484 1482 1480 1478 1476 1473 1469 1466 1462 1458 1455 1452 1450 1447 1444 1441 1437 1435 1432 1429 1426
1443 1444 1446 1448 1451 1454 1457 1461 1464 1468 1472 1475 1478 1480 1482 1483 1483 1484 1483 1482 1481 1480 1478 1476 1474 1471 1469 1466 1462 1459 1455 1451 1447 1444 1441 1438 1435 1432 1428 1425 1422 1420 1417
1440 1441 1442 1444 1447 1450 1454 1457 1460 1464 1467 1470 1472 1475 1476 1477 1478 1478 1477 1476 1475 1473 1471 1469 1466 1463 1461 1458 1454 1450 1446 1442 1439 1436 1433 1429 1425 1423 1419 1415 1411 1409 1407
1437 1438 1440 1442 1444 1447 1450 1453 1456 1459 1462 1465 1467 1470 1471 1472 1472 1472 1471 1470 1468 1466 1464 1461 1459 1455 1453 1450 1446 1442 1437 1433 1430 1427 1424 1420 1416 1413 1411 1407 1403 1399 1397
1435 1436 1438 1440 1442 1444 1446 1449 1452 1454 1457 1460 1463 1465 1466 1466 1466 1466 1465 1463 1461 1459 1456 1453 1451 1448 1444 1442 1438 1434 1429 1424 1420 1417 1414 1412 1408 1405 1403 1400 1395 1391 1387
1433 1435 1436 1438 1440 1442 1444 1446 1449 1451 1454 1457 1458 1460 1461 1461 1460 1460 1458 1456 1454 1451 1448 1445 1442 1439 1436 1433 1429 1426 1421 1416 1411 1407 1404 1401 1399 1396 1394 1391 1388 1384 1381
1432 1433 1435 1436 1438 1440 1442 1444 1446 1449 1451 1452 1454 1455 1455 1455 1454 1453 1451 1449 1446 1443 1439 1436 1432 1430 1427 1424 1420 1417 1413 1409 1404 1398 1395 1392 1389 1387 1385 1382 1379 1376 1373
1431 1432 1434 1435 1437 1438 1440 1442 1444 1446 1447 1448 1449 1450 1449 1449 1448 1446 1444 1441 1439 1435 1431 1427 1422 1419 1416 1414 1411 1407 1403 1399 1395 1390 1387 1384 1381 1378 1375 1372 1370 1367 1364
1429 1430 1432 1433 1435 1437 1438 1440 1441 1442 1443 1444 1444 1444 1443 1442 1441 1439 1437 1434 1431 1427 1423 1419 1414 1409 1406 1403 1400 1396 1393 1389 1386 1382 1378 1375 1371 1369 1365 1363 1360 1358 1355
1427 1429 1430 1432 1433 1434 1436 1437 1438 1438 1438 1438 1438 1438 1437 1435 1433 1431 1429 1425 1422 1420 1415 1410 1406 1401 1396 1393 1391 1388 1383 1380 1376 1372 1368 1365 1361 1358 1356 1353 1351 1348 1346
1425 1426 1428 1429 1431 1432 1433 1433 1434 1434 1433 1432 1432 1431 1429 1427 1425 1422 1419 1416 1414 1410 1406 1402 1399 1393 1389 1385 1382 1379 1375 1371 1368 1365 1360 1356 1353 1350 1347 1344 1342 1340 1338